Other Public Products
Issued by NWS Grand Forks, ND

Home | Current Version | Previous Version | Text Only | Print | Product List | Glossary Off
Versions: 1 2 3 4 5 6 7 8 9 10 11 12 13 14 15 16 17 18 19 20 21 22 23 24 25 26 27 28 29 30 31 32 33 34 35 36 37 38 39 40 41 42 43 44 45 46 47 48 49 50

000
FPUS83 KFGF 292331
OPUFGF
PRAIRIE TO PINES WEATHER ROUNDUP
NATIONAL WEATHER SERVICE EASTERN NORTH DAKOTA/GRAND FORKS ND
500 PM CST THU JAN 29 2015

 **SATELLITE DATA USED TO AUGMENT SKY COVER AT AUTOMATED STATIONS**
 *****  WEATHER ACROSS EASTERN NORTH DAKOTA  *****

CITY           SKY/WX    TMP DP  RH WIND       PRES   REMARKS
GRAND FORKS    PTCLDY    10   3  73 N14       30.56R WCI  -6
GRAND FORKS AF CLEAR     11   2  67 NE9       30.56R WCI  -2
GRAND CITY NWS   N/A      9 N/A N/A N10         N/A  WCI  -6
BUXTON           N/A     12   3  65 N8          N/A  WCI   1
DEVILS LAKE    CLOUDY    12   7  79 N6        30.49S WCI   3
FARGO          PTCLDY    15   5  64 N10       30.55R WCI   2
WAHPETON ARPT  CLOUDY    18  10  73 N16       30.53R WCI   3
$$

 *****  WEATHER ACROSS CENTRAL AND WESTERN NORTH DAKOTA  *****

CITY           SKY/WX    TMP DP  RH WIND       PRES   REMARKS
JAMESTOWN      FLURRIES  19  12  74 N10       30.48R WCI   7
BISMARCK       PTCLDY    28  19  69 N7        30.46S WCI  21
MINOT          CLOUDY    17  11  77 NE8       30.45F WCI   7
MINOT AFB      CLOUDY    17  15  89 E8        30.45F WCI   7
GARRISON         N/A     25  18  74 NE3       30.43F
WILLISTON      CLEAR     32  21  64 CALM      30.39F
DICKINSON      CLEAR     37  18  46 CALM      30.35S
HETTINGER      CLEAR     39  14  36 W6        30.38F
$$

 *****  OTHER OBSERVATIONS NORTHEAST NORTH DAKOTA  *****

CITY           SKY/WX    TMP DP  RH WIND       PRES   REMARKS
WALHALLA         N/A      7   0  72 N9        30.57S WCI  -7
LANGDON        NOT AVBL
CAVALIER       FAIR       7   0  72 N10       30.57S WCI  -8
GRAFTON        NOT AVBL
CANDO          CLOUDY    10   5  79 CALM      30.51R
FORT TOTTEN      N/A     12   5  74 N2        29.95
ROLLA          CLOUDY     7   5  92 MISG      30.47S
RUGBY          FAIR       9   5  85 NW6       30.49S WCI  -1
 ***** THE ABOVE OBSERVATIONS ARE NON NWS ARE NOT QUALITY
        CONTROLLED AND MAY MIS-REPORT RAIN FOR SNOW...
$$

 *****  OTHER OBSERVATIONS SOUTHEAST NORTH DAKOTA *****

CITY           SKY/WX    TMP DP  RH WIND       PRES   REMARKS
COOPERSTOWN    NOT AVBL
VALLEY CITY    CLOUDY    16  12  86 N8        30.50S WCI   5
OAKES            N/A     19  16  86 N10       30.50R WCI   8
GWINNER        CLOUDY    21  14  73 N12       30.52R WCI   9
SHEYENNE NWR     N/A     18   7  61 N9        29.95S WCI   7
BUFFALO        NOT AVBL
WYNDMERE         N/A     19   9  63 NW14        N/A  WCI   6
 ***** THE ABOVE OBSERVATIONS ARE NON NWS ARE NOT QUALITY
       CONTROLLED AND MAY MIS-REPORT RAIN FOR SNOW...
$$

  *****  WEATHER ACROSS NORTHERN MINNESOTA  *****

CITY           SKY/WX    TMP DP  RH WIND       PRES   REMARKS
FLAG ISLAND    CLEAR      5  -2  72 NW13      30.47R WCI -12
WARROAD        CLEAR      5  -2  72 NW12      30.50R WCI -11
ROSEAU         CLEAR      7   0  72 NW9       30.51R WCI  -7
HALLOCK        PTCLDY     5   0  78 N9        30.56S WCI  -9
THF RVR FALLS  PTCLDY     7   0  72 NW10      30.52R WCI  -8
HALSTAD          N/A     11   1  64 N14         N/A  WCI  -4
FOSSTON        MOCLDY     5   1  85 NW14      30.50R WCI -12
BAUDETTE       CLEAR      6  -2  69 NW13      30.44R WCI -10
WASKISH        MOCLDY     9   1  72 NW7       30.46R WCI  -3
CROOKSTON      PTCLDY     7   3  85 N15       30.56S WCI -11
$$
  *****  WEATHER ACROSS CENTRAL AND WEST MINNESOTA  *****

CITY           SKY/WX    TMP DP  RH WIND       PRES   REMARKS
BEMIDJI        PTCLDY     8   3  77 NW14      30.44R WCI  -8
PARK RAPIDS    CLEAR     14   5  67 NW12      30.41R WCI   0
WADENA         CLEAR     10   7  85 NW12      30.44R WCI  -4
DETROIT LAKES  PTCLDY    10   7  85 NW15      30.48R WCI  -6
MOORHEAD       PTCLDY    14   9  79 N13       30.55R WCI   0
FERGUS FALLS   LGT SNOW  14   7  73 N16G23    30.54R WCI  -2
ELBOW LAKE     FLURRIES  13   8  79 NW17G24   30.49R WCI  -3
MORRIS MN      MOCLDY    16  10  79 N18       30.48R WCI  -1
STAPLES        CLEAR     12   7  79 NW14      30.43R WCI  -3
WHEATON        CLOUDY    18  10  73 N12G21    30.53S WCI   5
$$
  *****  WEATHER ELSEWHERE ACROSS MINNESOTA  *****

CITY           SKY/WX    TMP DP  RH WIND       PRES   REMARKS
DULUTH         MOCLDY    15   5  64 NW13G21   30.30R WCI   1
INTRNTL FALLS  CLOUDY     9   0  67 N14       30.41R WCI  -7
ELY            CLOUDY    10   1  67 NW14G21   30.31R WCI  -5
CLOQUET        PTCLDY    14   3  62 NW15G21   30.34R WCI  -1
BRAINERD       PTCLDY    16   6  65 N13       30.40R WCI   2
HIBBING        PTCLDY    11   1  64 NW16      30.35R WCI  -6
ALEXANDRIA     PTCLDY    14   7  73 N13       30.46R WCI   0
SAINT CLOUD    CLEAR     22   9  57 N14G22    30.39R WCI   9
MINNEAPOLIS    MOCLDY    26  13  57 NW18G28   30.35R WCI  13
$$

  *****  WEATHER ACROSS SOUTH DAKOTA  *****

CITY           SKY/WX    TMP DP  RH WIND       PRES   REMARKS
SIOUX FALLS    CLOUDY    28  19  69 NW18      30.45R WCI  15
BROOKINGS      NOT AVBL
WATERTOWN      CLOUDY    22  15  75 NW15      30.45R WCI   9
HURON          CLOUDY    28  19  69 N13       30.50R WCI  17
SISSETON         N/A     21  14  74 N16       30.49  WCI   7
ABERDEEN       CLOUDY    25  17  72 N15       30.50F WCI  13
MITCHELL       CLOUDY    30  22  72 N14       30.51R WCI  19
PIERRE         CLEAR     38  21  50 W6        30.45R
MOBRIDGE       CLEAR     35  21  56 CALM      30.43R
RAPID CITY     CLEAR     44  13  28 E5        30.39F
$$

  *****  SOME WEATHER IN NEARBY STATES *****

CITY           SKY/WX    TMP DP  RH WIND       PRES   REMARKS
GLASGOW MT     CLEAR     35  32  88 MISG      30.28F
GREAT FALLS MT PTSUNNY   49  18  29 SW14      30.20F
CHEYENNE WY    SUNNY     41  23  48 S15       30.38S
SCOTTSBLUFF NE CLEAR     47  20  34 CALM      30.40F
OMAHA NE       MOCLDY    37  25  61 N15       30.45R
DES MOINES IA  CLOUDY    34  21  59 N20G32    30.40R WCI  23
DAVENPORT IA   CLOUDY    33  25  72 NW24G35   30.23R WCI  20
CHICAGO IL     CLOUDY    34  24  67 NW16      30.12R WCI  24
EAU CLAIRE WI  CLOUDY    27  14  58 NW18G28   30.25R WCI  14
LA CROSSE WI   CLOUDY    32  20  61 N16       30.25R WCI  21
$$

  *****  SOME NATIONAL WEATHER *****

CITY           SKY/WX    TMP DP  RH WIND       PRES   REMARKS
LA GUARDIA NY  CLOUDY    32  24  72 S10       30.14F WCI  24
RALEIGH NC     MOCLDY    42  25  50 S5        30.11F
ATLANTA GA     CLOUDY    57  28  33 SW6       30.12R
NEW ORLEANS LA PTCLDY    73  53  49 W13       30.17S
OKLAHOMA CITY  CLOUDY    49  27  42 N17G25    30.43R
ALBUQUERQUE NM CLOUDY    49  23  36 E22       30.37S
SALT LAKE CITY CLOUDY    43  36  76 NW7       30.26F
LOS ANGELES CA CLOUDY    67  49  52 SW5       29.98S
BOISE ID       PTSUNNY   46  34  62 CALM      30.34F
SEATTLE WA     MOSUNNY   54  38  54 N5        30.30F
$$

*** WEATHER ACROSS MANITOBA...SASKATCHEWAN AND ONTARIO ***
                ***ONTARIO***

CITY           SKY/WX    TMP DP  RH WIND       PRES   REMARKS
GERALDTON      MOCLDY     1  -6  71 NW10G18   30.18R WCI -14
THUNDER BAY    PTCLDY    12   1  62 NW14G25   30.28R WCI  -3
SIOUX LOOKOUT  FLURRIES   3  -2  78 NW8       30.34R WCI -10
TORONTO        LGT SNOW  30  28  93 W7        29.72R WCI  23
BIG TROUT LK   CLEAR     -9 -17  70 W10       30.27R WCI -28
PICKLE LAKE    CRYSTALS  -4 -11  71 NW6       30.27R WCI -16
DRYDEN         MOCLDY     3  -2  78 NW9       30.36R WCI -11
KENORA         PTCLDY     3  -4  72 NW10      30.42R WCI -12
$$
                *** MANITOBA***

CITY           SKY/WX    TMP DP  RH WIND       PRES   REMARKS
BRANDON        MOCLDY     5   0  78 E3        30.52S
DAUPHIN        CLEAR      0  -8  71 E5        30.53F WCI -10
ISLAND LAKE    CLEAR     -9 -18  64 W9        30.43R WCI -27
PILOT MOUND      N/A      3   0  85 NE3         N/A
THE PAS        MOCLDY    -2 -11  65 SW5       30.48F WCI -12
THOMPSON       PTCLDY    -8 -17  65 W12       30.39F WCI -27
WINNIPEG       CLEAR      3  -6  66 NW10      30.58R WCI -12
LYNN LAKE      CLEAR    -11 -17  77 W7        30.34F WCI -26
CHURCHILL      LGT SNOW -11 -18  70 NW20G33   30.23R BLWGSNOWWCI -36
GILLAM         CLEAR     -6 -18  54 W15       30.28S WCI -27
$$
                ***SASKATCHEWAN***

CITY           SKY/WX    TMP DP  RH WIND       PRES   REMARKS
ESTEVAN        MOCLDY    18  14  86 E7        30.41  WCI   8
KINDERSLEY     MOCLDY    23  16  74 SE9       30.22S WCI  13
LLOYDMINSTER   MOCLDY    16   9  73 SE8       30.22R WCI   5
PRINCE ALBERT  FLURRIES   7   1  78 S3        30.39F
REGINA         CLOUDY    14  10  85 SE12      30.36F WCI   0


USA.gov is the U.S. government's official web portal to all federal, state and local government web resources and services.